Find Starlink 32501

NORAD ID: 61890 Int'l Des: 2024-204 Owner: SPXS Country: US Constellation: starlink operational
LEOCIRCULAR

Live Position

Loading 3D Globe...

About Starlink 32501

Description loading...

Upcoming Passes

Passes for default location (London). Set your location on the main map for personalized predictions.

Altitude History

Loading altitude history...

Two-Line Element Set

1 61890U 24204S 26132.58020928 .00001391 00000-0 52302-4 0 9994
2 61890 53.1619 190.0214 0001075 84.9159 275.1967 15.34384669 84881
Epoch: May 12, 2026 • Age: 11 hours

Current Status

Altitude 468.4 km
Velocity 7.64 km/s
Sub-Earth Point 52.65°N, 16.11°E
Launch Date Nov 9, 2024
Age 1.5 years
Type internet

Technical Details

Classification Payload
Mass 730.00 kg
Dry Mass 700.00 kg
Total Mass 730.00 kg
Length 0.30 m
Diameter 4.10 m
Span 29.00 m
Shape Box + pan
Manufacturer SPXS
Bus Type Starlink V2M
Phase Status In Orbit
Owner/State SPXS/US

Most Searched